Location: Lane
(33.5226°N, 79.8788°W)
Time: 00:10:14
(UTC+00:00)

Vanguard 1 Rocket - Pass Details

Date: 08 October 2022
Orbit: 650 x 4225 km, 34.3° (Epoch: 05 December)

Event Time Altitude Azimuth Distance (km) Brightness Sun altitude
Rises 04:10:00 0° 283° (WNW) 7,185 12.3 -59.3°
Reaches altitude 10° 04:15:37 10° 283° (WNW) 5,612 11.6 -59.9°
Enters shadow 04:21:19 24° 280° (W) 3,903 10.6 -60.4°
